Language selection

Weather shortcuts

Haro Strait: Past 24 Hour Conditions

 

La Perouse Bank - 46206

12:00 PM PDT 19 May 2024Buoy position: 48.83N 126.0W
Disclaimer

This table is a summary of hourly weather conditions for the past 24 hours.
Please note that these observations might not always be representative of weather conditions over their associated marine area.

Date / Time
(PDT)
Wind(knots) Wave height(m) Wave period(s) Pressure(kPa) Air tempC) Water tempC)
19 May 2024
12:00 NW 14 gusts 17 1.62 7.7 102.5 10 10
11:00 NW 10 gusts 12 1.73 6.9 102.5 10 10
10:00 NNW 9 gusts 10 1.71 6.9 102.5 10 10
9:00 NNW 13 gusts 16 1.83 7.1 102.4 10 10
8:00 NW 16 gusts 19 1.69 7.1 102.4 10 10
7:00 NNW 16 gusts 18 1.74 6.5 102.3 10 10
6:00 NNW 15 gusts 17 1.73 7.1 102.2 10 10
5:00 NNW 11 gusts 14 1.57 6.7 102.2 10 10
4:00 NW 12 gusts 15 1.82 7.1 102.1 10 10
3:00 NW 14 gusts 17 1.75 6.9 102.1 10 10
2:00 NNW 12 gusts 14 1.71 6.5 102.1 10 10
1:00 NW 15 gusts 18 1.68 7.1 102.1 10 10
0:00 NW 16 gusts 19 1.55 5.7 102.0 10 10
18 May 2024
23:00 NW 17 gusts 19 1.59 6.1 102.0 10 10
22:00 NW 17 gusts 20 1.46 5.1 102.0 10 10
21:00 WNW 19 gusts 23 1.50 5.4 101.9 10 10
20:00 NW 17 gusts 21 1.54 5.1 101.9 10 10
19:00 NW 16 gusts 19 1.47 5.0 102.0 10 10
18:00 WNW 18 gusts 21 1.49 5.4 101.9 10 10
17:00 WNW 18 gusts 22 1.52 4.8 102.0 10 10
16:00 WNW 17 gusts 21 1.49 5.1 101.9 10 10
15:00 WNW 19 gusts 22 1.41 6.9 101.9 10 10
14:00 WNW 18 gusts 21 1.41 5.6 101.9 10 10
13:00 WNW 18 gusts 22 1.46 5.0 101.9 10 10
12:00 WNW 18 gusts 22 1.34 5.7 101.9 10 10

Zoom-in to make a selection

Map of Pacific - South Coast marine weather areas South Nomad - 46036 Sentry Shoal - 46131 South Brooks - 46132 Halibut Bank - 46146 South Moresby - 46147 South Hecate Strait - 46185 West Sea Otter - 46204 La Perouse Bank - 46206 East Dellwood - 46207 Georgia Strait - 46303 English Bay – 46304 Discovery Island Esquimalt Harbour Kelp Reefs Malahat Race Rocks Lightstation Saturna Island Sheringham Point University of Victoria Victoria Gonzales Victoria Int'l Airport Ballenas Islands Campbell River Airport Comox Airport Entrance Island Fanny Island Nanaimo Airport Port Hardy Airport Sisters Islets Estevan Point Port Alberni Sartine Island Solander Island Tofino Airport Grief Point Howe Sound - Pam Rocks Powell River Airport Sechelt Squamish Airport Cape St.James Bella Bella Airport Bella Coola Airport Cathedral Point Herbert Island Point Atkinson Sand Heads Lightstation Tsawwassen Ferry Terminal Vancouver Int'l Airport Vancouver Harbour West Vancouver
Legend:
buoy Buoy
land station Land Station

Pacific - South Coast Area

Another Region

Date modified: